Location: Raleigh
(35.2059°N, 89.9137°W)
Time: 18:04:23
(UTC+00:00)

Daily predictions for brighter satellites

Satellite Brightness Start Highest point End
(mag) Time Altitude Azimuth Time Altitude Azimuth Time Altitude Azimuth
Milstar 3 Cent rocket 4.2 12:02:45 10° WSW 12:07:15 24° SSW 12:14:01 10° SE
Cosmos 1933 4.5 12:06:52 10° NW 12:10:00 23° W 12:13:06 10° SW
ERS-2 2.1 12:07:44 10° N 12:10:26 34° WNW 12:13:07 10° SW
SAR-Lupe-2 3.6 12:08:07 10° N 12:11:39 58° WNW 12:15:09 10° SSW
PSLV R/B 4.2 12:09:51 10° N 12:13:40 32° WNW 12:17:27 10° SW
COSMO-SKYMED 1 3.8 12:10:18 10° SSW 12:13:43 22° W 12:17:07 10° NW
Cosmos 1862 4.4 12:10:55 10° SW 12:13:58 23° WNW 12:17:04 10° NNW
Cosmos 2151 3.3 12:10:01 10° SSW 12:13:59 43° W 12:18:01 10° N
SeaSat 1 4.5 12:11:42 10° ESE 12:15:34 24° NE 12:19:27 10° N
USA 215 3.7 12:15:24 10° NNE 12:21:26 41° NW 12:27:27 10° WSW
Meteor 1-31 Rocket 2.8 12:19:16 10° NNE 12:23:04 86° ESE 12:26:51 10° SSW
GENESIS II 4.5 12:20:08 10° SW 12:23:48 43° WNW 12:27:30 10° NNE
BlueWalker 3 3.4 12:26:14 10° WNW 12:29:13 22° SW 12:32:10 10° S
Cosmos 1602 3.9 23:11:09 10° N 23:14:46 47° E 23:18:21 10° SSE
Nadezhda 4 Rocket 4.0 23:08:57 10° S 23:15:01 64° E 23:21:04 10° NNE
Cosmos 1782 3.8 23:15:14 10° SSE 23:18:28 25° E 23:21:42 10° NE
Cosmos 1500 3.6 23:20:50 10° NNW 23:24:19 61° W 23:27:47 10° S
Meteosat 1 Rocket2 4.3 23:22:02 10° WSW 23:25:32 33° S 23:30:01 10° ESE
Helios 1B rocket 3.4 23:21:57 10° S 23:25:45 50° W 23:29:37 10° NNW
Cosmos 1812 Rocket 3.6 23:22:12 10° S 23:26:26 60° E 23:30:43 10° NNE
SL-8 R/B 4.5 23:24:09 10° NW 23:28:29 33° NNE 23:32:48 10° E
CZ-4B R/B 3.6 23:25:14 10° SSE 23:28:44 59° ENE 23:32:18 10° N
Cosmos 1603 4.4 23:23:58 10° N 23:28:59 31° ENE 23:33:56 10° ESE
Helios 1A 3.1 23:27:01 10° NNE 23:31:04 52° E 23:35:05 10° S
ISS -3.5 23:29:10 10° NW 23:32:26 47° NE 23:35:40 10° ESE
CZ-2C R/B 2.4 23:32:47 10° WSW 23:34:46 21° SSW 23:36:43 10° SSE
CZ-4B R/B 3.9 23:30:11 10° SE 23:34:53 39° ENE 23:39:29 10° N
H-2A R/B 2.0 23:32:50 10° WSW 23:35:00 36° S 23:39:49 10° ESE
Hubble Space Telescope 3.6 23:33:26 10° SW 23:35:01 12° SSW 23:36:37 10° S
SMAP 3.1 23:31:14 10° SSE 23:35:53 88° W 23:40:33 10° NNW
SL-16 R/B 4.0 23:36:43 10° NW 23:41:50 35° WSW 23:46:55 10° SSW
SL-4 R/B 3.7 23:41:03 10° SSE 23:42:23 12° SE 23:43:13 11° ESE
NOAA 6 4.5 23:40:13 10° SE 23:44:54 38° ENE 23:49:36 10° N
Cosmos 1627 Rocket 4.5 23:46:07 10° S 23:52:17 65° E 23:58:33 10° NNE
Cosmos 1943 3.1 23:47:05 10° NNW 23:52:44 75° ENE 23:58:22 10° SSE
Cosmos-2242 4.2 23:50:09 10° SSW 23:54:17 45° W 23:58:28 10° N
